This is the latest recevied weather packets stored in our database for station/object K1BES. If no packets are shown the sender has not sent any weather packets the latest 10 day(s).
| Time | Temp. | Humidity | Pressure | Rain* | Wind** | Luminosity | Snow |
|---|---|---|---|---|---|---|---|
| 1777675357 | 26.11° C | 74% | 1012.3 hPa | 0 mm | - | 49 W/m² | - |
| 1777675053 | 26.11° C | 74% | 1012.2 hPa | 0 mm | - | 51 W/m² | - |
| 1777674750 | 26.11° C | 75% | 1012.4 hPa | 0 mm | - | 52 W/m² | - |
| 1777674446 | 26.11° C | 75% | 1012.5 hPa | 0 mm | - | 52 W/m² | - |
| 1777674144 | 26.67° C | 74% | 1012.5 hPa | 0 mm | - | 53 W/m² | - |
| 1777673840 | 26.67° C | 74% | 1012.3 hPa | 0 mm | - | 75 W/m² | - |
| 1777673537 | 26.67° C | 73% | 1012.3 hPa | 0 mm | - | 63 W/m² | - |
| 1777673235 | 26.67° C | 75% | 1012.5 hPa | 0 mm | - | 66 W/m² | - |
| 1777672932 | 26.67° C | 74% | 1012.5 hPa | 0 mm | - | 67 W/m² | - |
| 1777672629 | 26.67° C | 73% | 1012.3 hPa | 0 mm | - | 110 W/m² | - |
| 1777672324 | 27.22° C | 73% | 1012.6 hPa | 0 mm | - | 86 W/m² | - |
| 1777672019 | 27.22° C | 72% | 1012.7 hPa | 0 mm | - | 92 W/m² | - |
| 1777671715 | 27.22° C | 72% | 1012.3 hPa | 0 mm | - | 106 W/m² | - |
| 1777671412 | 27.22° C | 73% | 1012.4 hPa | 0 mm | - | 115 W/m² | - |
| 1777671107 | 27.22° C | 71% | 1012.6 hPa | 0 mm | - | 110 W/m² | - |
| 1777670804 | 27.78° C | 72% | 1012.4 hPa | 0 mm | - | 116 W/m² | - |
| 1777670501 | 27.78° C | 70% | 1012.6 hPa | 0 mm | - | 188 W/m² | - |
| 1777670198 | 27.22° C | 72% | 1012.7 hPa | 0 mm | - | 512 W/m² | - |
| 1777669895 | 27.78° C | 72% | 1012.6 hPa | 0 mm | - | 418 W/m² | - |
| 1777669592 | 27.78° C | 71% | 1012.6 hPa | 0 mm | - | 139 W/m² | - |
| 1777669289 | 27.78° C | 70% | 1012.8 hPa | 0 mm | - | 283 W/m² | - |
| 1777668985 | 27.78° C | 69% | 1013 hPa | 0 mm | - | 133 W/m² | - |
| 1777668683 | 27.78° C | 70% | 1012.9 hPa | 0 mm | - | 109 W/m² | - |
| 1777668379 | 27.78° C | 69% | 1013.1 hPa | 0 mm | - | 137 W/m² | - |
| 1777668075 | 28.33° C | 70% | 1013 hPa | 0 mm | - | 371 W/m² | - |
* Rain latest hour (hover to see other rain measurements)
** Current wind speed in m/s (hover to see current wind gust speed)